When you browse on this site, cookies collect data to enhance your experience and personalize the content and advertising you see.
Visit our Privacy Policy to learn more. By continuing to use the site, you agree to this use of cookies and data.
  • In Hungary
  • List of Countries
  • For 7 days
  • Water Temperature
  • Satellite Maps
  • Weather Map
  • News
  • Weather Widgets
  • user-avatar
    Login

    Hourly Weather Leknes

    Today, 21 March, Thursday

    Time Temperature Precipitation Wind Pressure Humidity
    00:00 -2°C° 0.1 mm 10 mps 730 mmHg 72%
    01:00 -2°C° 0.1 mm 10 mps 730 mmHg 68%
    02:00 -2°C° 0 mm 8 mps 730 mmHg 68%
    03:00 -2°C° 0 mm 7 mps 729 mmHg 67%
    04:00 -1°C° 0 mm 5 mps 729 mmHg 67%
    05:00 -2°C° 0 mm 6 mps 728 mmHg 69%
    06:00 -2°C° 0 mm 6 mps 727 mmHg 72%
    07:00 -2°C° 0 mm 7 mps 726 mmHg 74%
    08:00 -2°C° 0.5 mm 8 mps 725 mmHg 73%
    09:00 -3°C° 0.5 mm 10 mps 723 mmHg 72%
    10:00 -3°C° 0.5 mm 12 mps 722 mmHg 71%
    11:00 -3°C° 0.6 mm 15 mps 722 mmHg 76%
    12:00 -3°C° 0.6 mm 17 mps 723 mmHg 81%
    13:00 -3°C° 0.6 mm 20 mps 723 mmHg 87%
    14:00 -5°C° 0.2 mm 22 mps 725 mmHg 85%
    15:00 -6°C° 0.2 mm 23 mps 727 mmHg 83%
    16:00 -7°C° 0.2 mm 25 mps 728 mmHg 81%
    17:00 -6°C° 0.1 mm 22 mps 730 mmHg 74%
    18:00 -7°C° 0.1 mm 19 mps 732 mmHg 67%
    19:00 -7°C° 0.1 mm 15 mps 734 mmHg 60%
    20:00 -6°C° 0.1 mm 13 mps 735 mmHg 61%
    21:00 -6°C° 0.1 mm 12 mps 737 mmHg 61%
    22:00 -5°C° 0.1 mm 10 mps 738 mmHg 61%
    23:00 -5°C° 0.1 mm 9 mps 738 mmHg 62%

    Tomorrow, 22 March, Friday

    Time Temperature Precipitation Wind Pressure Humidity
    00:00 -4°C° 0.1 mm 9 mps 739 mmHg 62%
    01:00 -4°C° 0.1 mm 8 mps 739 mmHg 63%
    02:00 -4°C° 0.1 mm 8 mps 739 mmHg 64%
    03:00 -4°C° 0.1 mm 8 mps 739 mmHg 65%
    04:00 -4°C° 0.1 mm 8 mps 739 mmHg 67%
    05:00 -4°C° 0.3 mm 8 mps 738 mmHg 71%
    06:00 -4°C° 0.3 mm 8 mps 738 mmHg 75%
    07:00 -4°C° 0.3 mm 8 mps 738 mmHg 79%
    08:00 -4°C° 0.3 mm 9 mps 737 mmHg 77%
    09:00 -3°C° 0.3 mm 9 mps 737 mmHg 75%
    10:00 -3°C° 0.3 mm 9 mps 736 mmHg 72%
    11:00 -3°C° 0 mm 10 mps 734 mmHg 71%
    12:00 -3°C° 0 mm 11 mps 733 mmHg 69%
    13:00 -3°C° 0 mm 12 mps 732 mmHg 67%
    14:00 -3°C° 0.3 mm 12 mps 729 mmHg 68%
    15:00 -4°C° 0.3 mm 13 mps 727 mmHg 68%
    16:00 -2°C° 0.3 mm 14 mps 725 mmHg 69%
    17:00 -2°C° 1.2 mm 14 mps 723 mmHg 75%
    18:00 -3°C° 1.2 mm 15 mps 722 mmHg 80%
    19:00 -3°C° 1.2 mm 15 mps 720 mmHg 85%
    20:00 -2°C° 0.9 mm 16 mps 719 mmHg 86%
    21:00 -2°C° 0.9 mm 16 mps 719 mmHg 86%
    22:00 0°C° 0.9 mm 16 mps 718 mmHg 86%
    23:00 0°C° 0.3 mm 17 mps 717 mmHg 82%

    Day after tomorrow, 23 March, Saturday

    Time Temperature Precipitation Wind Pressure Humidity
    00:00 -2°C° 0.3 mm 18 mps 716 mmHg 78%
    01:00 -2°C° 0.3 mm 18 mps 716 mmHg 74%
    02:00 -2°C° 0.2 mm 19 mps 714 mmHg 68%
    03:00 -2°C° 0.2 mm 20 mps 713 mmHg 62%
    04:00 -3°C° 0.2 mm 20 mps 712 mmHg 56%
    05:00 -4°C° 0.4 mm 21 mps 710 mmHg 60%
    06:00 -4°C° 0.4 mm 23 mps 707 mmHg 65%
    07:00 -4°C° 0.4 mm 24 mps 705 mmHg 69%
    08:00 -4°C° 0.6 mm 24 mps 704 mmHg 71%
    09:00 -4°C° 0.6 mm 25 mps 702 mmHg 73%
    10:00 -4°C° 0.6 mm 25 mps 701 mmHg 76%
    11:00 -4°C° 0.5 mm 24 mps 703 mmHg 74%
    12:00 -2°C° 0.5 mm 23 mps 705 mmHg 72%
    13:00 -2°C° 0.5 mm 22 mps 706 mmHg 70%
    14:00 -4°C° 0.4 mm 22 mps 710 mmHg 70%
    15:00 -5°C° 0.4 mm 22 mps 713 mmHg 70%
    16:00 -6°C° 0.4 mm 22 mps 716 mmHg 70%
    17:00 -7°C° 0.2 mm 21 mps 718 mmHg 68%
    18:00 -9°C° 0.2 mm 20 mps 720 mmHg 66%
    19:00 -10°C° 0.2 mm 19 mps 723 mmHg 65%
    20:00 -10°C° 0.1 mm 18 mps 724 mmHg 64%
    21:00 -10°C° 0.1 mm 18 mps 725 mmHg 63%
    22:00 -9°C° 0.1 mm 17 mps 727 mmHg 63%
    23:00 -9°C° 0.1 mm 16 mps 727 mmHg 64%

    24 March, Sunday

    Time Temperature Precipitation Wind Pressure Humidity
    00:00 -9°C° 0.1 mm 15 mps 728 mmHg 65%
    01:00 -8°C° 0.1 mm 14 mps 729 mmHg 66%
    02:00 -7°C° 0.1 mm 13 mps 729 mmHg 65%
    03:00 -7°C° 0.1 mm 12 mps 729 mmHg 64%
    04:00 -7°C° 0.1 mm 11 mps 729 mmHg 64%
    05:00 -7°C° 0 mm 10 mps 729 mmHg 64%
    06:00 -6°C° 0 mm 9 mps 728 mmHg 64%
    07:00 -4°C° 0 mm 7 mps 728 mmHg 65%
    08:00 -5°C° 0.1 mm 8 mps 727 mmHg 69%
    09:00 -5°C° 0.1 mm 10 mps 726 mmHg 72%
    10:00 -4°C° 0.1 mm 11 mps 726 mmHg 76%
    11:00 -4°C° 0 mm 11 mps 725 mmHg 76%
    12:00 -5°C° 0 mm 12 mps 724 mmHg 75%
    13:00 -5°C° 0 mm 13 mps 723 mmHg 74%
    14:00 -5°C° 1 mm 13 mps 721 mmHg 78%
    15:00 -4°C° 1 mm 13 mps 719 mmHg 82%
    16:00 -4°C° 1 mm 13 mps 718 mmHg 85%
    17:00 -3°C° 2.4 mm 12 mps 717 mmHg 87%
    18:00 -2°C° 2.4 mm 12 mps 716 mmHg 88%
    19:00 -2°C° 2.4 mm 11 mps 715 mmHg 90%
    20:00 -2°C° 0.5 mm 11 mps 716 mmHg 85%
    21:00 -2°C° 0.5 mm 10 mps 716 mmHg 80%
    22:00 -3°C° 0.5 mm 10 mps 716 mmHg 75%
    23:00 -3°C° 0 mm 9 mps 717 mmHg 73%

    25 March, Monday

    Time Temperature Precipitation Wind Pressure Humidity
    00:00 -3°C° 0 mm 9 mps 717 mmHg 71%
    01:00 -2°C° 0 mm 8 mps 718 mmHg 69%
    02:00 -4°C° 0.1 mm 9 mps 718 mmHg 73%
    03:00 -4°C° 0.1 mm 9 mps 719 mmHg 76%
    04:00 -4°C° 0.1 mm 10 mps 720 mmHg 80%
    05:00 -6°C° 0.3 mm 12 mps 721 mmHg 80%
    06:00 -8°C° 0.3 mm 14 mps 723 mmHg 81%
    07:00 -9°C° 0.3 mm 16 mps 724 mmHg 82%
    08:00 -9°C° 0.1 mm 15 mps 725 mmHg 76%
    09:00 -9°C° 0.1 mm 15 mps 727 mmHg 69%
    10:00 -9°C° 0.1 mm 14 mps 728 mmHg 63%
    11:00 -9°C° 0.1 mm 14 mps 729 mmHg 64%
    12:00 -9°C° 0.1 mm 13 mps 730 mmHg 65%
    13:00 -9°C° 0.1 mm 13 mps 732 mmHg 65%
    14:00 -9°C° 0.1 mm 13 mps 732 mmHg 64%
    15:00 -9°C° 0.1 mm 13 mps 733 mmHg 64%
    16:00 -9°C° 0.1 mm 13 mps 734 mmHg 63%
    17:00 -10°C° 0.2 mm 13 mps 735 mmHg 63%
    18:00 -10°C° 0.2 mm 12 mps 735 mmHg 63%
    19:00 -10°C° 0.2 mm 12 mps 736 mmHg 64%
    20:00 -10°C° 0.2 mm 12 mps 737 mmHg 64%
    21:00 -10°C° 0.2 mm 12 mps 737 mmHg 65%
    22:00 -10°C° 0.2 mm 12 mps 738 mmHg 65%
    23:00 -8°C° 0.2 mm 11 mps 739 mmHg 65%

    26 March, Tuesday

    Time Temperature Precipitation Wind Pressure Humidity
    00:00 -8°C° 0.2 mm 11 mps 740 mmHg 65%
    01:00 -8°C° 0.2 mm 10 mps 740 mmHg 65%
    02:00 -8°C° 0.2 mm 10 mps 741 mmHg 64%
    03:00 -8°C° 0.2 mm 9 mps 741 mmHg 64%
    04:00 -8°C° 0.2 mm 9 mps 742 mmHg 64%
    05:00 -7°C° 0.1 mm 8 mps 742 mmHg 64%
    06:00 -7°C° 0.1 mm 7 mps 742 mmHg 65%
    07:00 -7°C° 0.1 mm 7 mps 743 mmHg 65%
    08:00 -6°C° 0.1 mm 6 mps 743 mmHg 65%
    09:00 -6°C° 0.1 mm 6 mps 743 mmHg 65%
    10:00 -6°C° 0.1 mm 6 mps 744 mmHg 65%
    11:00 -5°C° 0 mm 5 mps 744 mmHg 64%
    12:00 -5°C° 0 mm 5 mps 744 mmHg 63%
    13:00 -5°C° 0 mm 5 mps 744 mmHg 63%
    14:00 -5°C° 0 mm 5 mps 744 mmHg 63%
    15:00 -4°C° 0 mm 4 mps 744 mmHg 64%
    16:00 -4°C° 0 mm 4 mps 744 mmHg 64%
    17:00 -5°C° 0 mm 5 mps 743 mmHg 65%
    18:00 -5°C° 0 mm 5 mps 743 mmHg 65%
    19:00 -6°C° 0 mm 6 mps 743 mmHg 65%
    20:00 -6°C° 0 mm 7 mps 742 mmHg 67%
    21:00 -6°C° 0 mm 9 mps 742 mmHg 70%
    22:00 -7°C° 0 mm 10 mps 741 mmHg 72%
    23:00 -7°C° 0.3 mm 11 mps 740 mmHg 76%
    Show more